Weather History for Dalhart, TX

Change the Weather History Date:

Friday, January 24, 2014

  Actual Average Record
Temperature  
Mean Temperature 30 °F 35 °F  
Max Temperature 55 °F 51 °F 77 °F (1970)
Min Temperature 4 °F 20 °F 3 °F (1969)
Degree Days  
Heating Degree Days 35 30  
Month to date heating degree days 701 731  
Since 1 July heating degree days 2636 2674  
Cooling Degree Days 0 0  
Month to date cooling degree days 0 0  
Year to date cooling degree days 0 0  
Moisture  
Dew Point 14 °F    
Average Humidity 50    
Maximum Humidity 80    
Minimum Humidity 20    
Precipitation  
Precipitation 0.00 in 0.02 in 0.15 in (1978)
Month to date precipitation 0.01 0.38  
Year to date precipitation 0.01 0.38  
Snow  
Snow 0.00 in 0.20 in 2.00 in (1978)
Month to date snowfall 3.0 3.2  
Since 1 July snowfall 12.5 9.4  
Snow Depth 2.00 in    
Sea Level Pressure  
Sea Level Pressure 30.41 in    
Wind  
Wind Speed 9 mph (SW)    
Max Wind Speed 14 mph    
Max Gust Speed 19 mph    
Visibility 10 miles    
Events      
T = Trace of Precipitation, MM = Missing Value Source: NWS Daily Summary

Daily Weather History Graph

Daily Weather History Graph

Search for Another Location

Airport:

Trip Planner

Search our weather history database for the weather conditions in past years. The results will help you decide how hot, cold, wet, or windy it might be!

Date:

Astronomy

Jan. 24, 2014 Rise Set
Actual Time 7:56 AM CST 6:08 PM CST
Civil Twilight 7:28 AM CST 6:36 PM CST
Nautical Twilight 6:57 AM CST 7:07 PM CST
Astronomical Twilight 6:27 AM CST 7:37 PM CST
Moon 1:28 AM CST (1/24) 12:27 PM CST (1/24)
Length of Visible Light 11h 07m
Length of Day
10h 12m
Last Quarter, 44% of the Moon is Illuminated
Jan 24
Last Quarter
Jan 30
New
Feb 6
First Quarter
Feb 14
Full
Feb 22
Last Quarter

Hourly Weather History & Observations

Time (CST) Temp. Windchill Dew Point Humidity Pressure Visibility Wind Dir Wind Speed Gust Speed Precip Events Conditions
12:53 AM 9.0 °F -5.9 °F 1.9 °F 73% 30.71 in 10.0 mi SW 11.5 mph - N/A   Clear
1:53 AM 8.1 °F -5.3 °F 1.9 °F 76% 30.68 in 10.0 mi SW 9.2 mph - N/A   Clear
2:53 AM 7.0 °F -8.3 °F 1.0 °F 77% 30.65 in 10.0 mi SW 11.5 mph - N/A   Clear
3:53 AM 5.0 °F -9.1 °F -2.0 °F 73% 30.63 in 10.0 mi SSW 9.2 mph - N/A   Clear
4:53 AM 6.1 °F -7.8 °F -0.9 °F 73% 30.59 in 10.0 mi SSW 9.2 mph - N/A   Clear
5:53 AM 8.1 °F -5.3 °F 1.0 °F 73% 30.55 in 10.0 mi SSW 9.2 mph - N/A   Clear
6:53 AM 14.0 °F -0.2 °F 7.0 °F 74% 30.52 in 10.0 mi SW 12.7 mph - N/A   Clear
7:53 AM 12.9 °F -0.2 °F 6.1 °F 74% 30.53 in 10.0 mi SSW 10.4 mph - N/A   Clear
8:53 AM 17.1 °F 4.3 °F 10.0 °F 74% 30.49 in 10.0 mi SW 11.5 mph - N/A   Clear
9:53 AM 25.0 °F 14.8 °F 15.1 °F 66% 30.47 in 10.0 mi WSW 10.4 mph - N/A   Clear
10:53 AM 32.0 °F 24.2 °F 17.1 °F 54% 30.45 in 10.0 mi WSW 9.2 mph - N/A   Clear
11:53 AM 37.9 °F 30.9 °F 18.0 °F 45% 30.41 in 10.0 mi SW 10.4 mph - N/A   Clear
12:53 PM 44.1 °F 40.1 °F 21.9 °F 42% 30.34 in 10.0 mi SW 6.9 mph - N/A   Clear
1:53 PM 48.0 °F - 21.9 °F 36% 30.30 in 10.0 mi WNW 8.1 mph - N/A   Clear
2:53 PM 52.0 °F - 26.1 °F 37% 30.26 in 10.0 mi NW 5.8 mph - N/A   Clear
3:53 PM 55.0 °F - 17.1 °F 23% 30.24 in 10.0 mi WSW 3.5 mph - N/A   Clear
4:53 PM 55.0 °F - 16.0 °F 22% 30.23 in 10.0 mi SSW 6.9 mph - N/A   Clear
5:53 PM 48.0 °F - 21.9 °F 36% 30.25 in 10.0 mi SW 5.8 mph - N/A   Clear
6:53 PM 37.9 °F 32.1 °F 19.9 °F 48% 30.26 in 10.0 mi SSW 8.1 mph - N/A   Clear
7:53 PM 34.0 °F 26.6 °F 19.9 °F 56% 30.28 in 10.0 mi SW 9.2 mph - N/A   Clear
8:53 PM 39.0 °F 31.4 °F 19.0 °F 45% 30.26 in 10.0 mi West 12.7 mph - N/A   Clear
9:53 PM 36.0 °F 28.0 °F 21.0 °F 55% 30.24 in 10.0 mi West 11.5 mph - N/A   Clear
10:53 PM 35.1 °F 27.4 °F 21.9 °F 59% 30.23 in 10.0 mi West 10.4 mph - N/A   Clear
11:53 PM 36.0 °F 28.0 °F 23.0 °F 59% 30.21 in 10.0 mi West 11.5 mph - N/A   Clear